Printer-friendly version
Follow the MPC on Twitter Follow the MPC on Facebook The MPC blog
Minor Planet Center

MPEC 2006-U19 : 2006 UY16

The following Minor Planet Electronic Circular may be linked-to from your own Web pages, but must not otherwise be redistributed electronically.

A form allowing access to any MPEC is at the bottom of this page.


Read MPEC 2006-U18 Read MPEC 2006-U20


M.P.E.C. 2006-U19                                Issued 2006 Oct. 20, 12:36 UT

     The Minor Planet Electronic Circulars contain information on unusual
         minor planets and routine data on comets.  They are published
   on behalf of Commission 20 of the International Astronomical Union by the
          Minor Planet Center, Smithsonian Astrophysical Observatory,
                          Cambridge, MA 02138, U.S.A.

             Prepared using the Tamkin Foundation Computer Network

                              MPC@CFA.HARVARD.EDU
          URL http://cfa-www.harvard.edu/iau/mpc.html  ISSN 1523-6714

                                   2006 UY16

Observations:
     K06U16Y* C2006 10 19.16911 22 51 16.70 -06 16 25.0          20.5 V EU019G96
     K06U16Y  C2006 10 19.17572 22 51 21.31 -06 15 34.4          20.9 V EU019G96
     K06U16Y  C2006 10 19.18231 22 51 25.95 -06 14 43.4          20.9 V EU019G96
     K06U16Y  C2006 10 19.18905 22 51 30.63 -06 13 51.7          20.6 V EU019G96
     K06U16Y  C2006 10 19.23022 22 51 59.25 -06 08 36.1          20.6 V EU019G96
     K06U16Y  C2006 10 19.23064 22 51 59.58 -06 08 32.1          20.7 V EU019G96
     K06U16Y  C2006 10 19.23105 22 51 59.83 -06 08 28.5          20.7 V EU019G96
     K06U16Y  C2006 10 19.23147 22 52 00.19 -06 08 25.5          21.0 V EU019G96
     K06U16Y  C2006 10 19.26804 22 52 25.78 -06 03 43.7          21.5 V EU019G96
     K06U16Y  C2006 10 19.26846 22 52 26.04 -06 03 40.9          21.1 V EU019G96
     K06U16Y  C2006 10 19.26888 22 52 26.29 -06 03 38.3          20.8 V EU019G96
     K06U16Y  C2006 10 19.26929 22 52 26.61 -06 03 34.4          21.1 V EU019G96
     K06U16Y tC2006 10 20.14401 23 03 05.93 -04 12 32.6          20.7 V EU019291
     K06U16Y tC2006 10 20.14922 23 03 09.48 -04 11 53.0          20.6 V EU019291
     K06U16Y tC2006 10 20.15311 23 03 12.07 -04 11 23.9          20.7 V EU019291
     K06U16Y  C2006 10 20.20178 23 03 44.85 -04 05 19.1          20.6 V EU019G96
     K06U16Y  C2006 10 20.20899 23 03 49.71 -04 04 24.9          20.6 V EU019G96
     K06U16Y 5C2006 10 20.21236 23 03 52.77 -04 04 01.4          20.2 R EU019673
     K06U16Y  C2006 10 20.21616 23 03 54.57 -04 03 31.1          20.6 V EU019G96
     K06U16Y 5C2006 10 20.21968 23 03 57.69 -04 03 06.4                 EU019673
     K06U16Y  C2006 10 20.22338 23 03 59.43 -04 02 36.8          20.1 V EU019G96
     K06U16Y 5C2006 10 20.22766 23 04 03.10 -04 02 06.5                 EU019673
     K06U16Y 5C2006 10 20.24034 23 04 11.62 -04 00 32.0                 EU019673

Observer details:
291 LPL/Spacewatch II.  Observer J. V. Scotti.  1.8-m f/2.7 reflector + CCD.
673 Table Mountain Observatory, Wrightwood.  Observer J. Young.  0.61-m f/16
    Cassegrain + CCD.
G96 Mt. Lemmon Survey.  Observer R. E. Hill.  Measurers E. C. Beshore,
    E. J. Christensen, G. J. Garradd, A. R. Gibbs, A. D. Grauer, R. E. Hill,
    R. A. Kowalski, S. M. Larson, R. H. McNaught.  1.5-m reflector + CCD.

Orbital elements:
2006 UY16                                                Earth MOID = 0.0278 AU
Epoch 2006 Sept. 22.0 TT = JDT 2454000.5                MPC
M 357.96013              (2000.0)            P               Q
n   0.32225743     Peri.  337.33525     +0.99951147     +0.02387682
a   2.1070140      Node    21.32618     -0.01242619     +0.89566348
e   0.5144347      Incl.    3.17888     -0.02867762     +0.44409102
P   3.06           H   24.6           G   0.15           U   8
Residuals in seconds of arc
061019 G96  0.1+  0.7+    061019 G96  1.0+  0.1+    061020 G96  0.0   0.6-
061019 G96  0.1+  0.5+    061019 G96  0.5+  0.3-    061020 673  0.6+  0.6+
061019 G96  0.8+  0.8+    061019 G96  0.2-  1.0-    061020 G96  0.4+  0.8-
061019 G96  0.6+  0.7+    061019 G96  0.3+  0.2-    061020 673  0.2+  0.5+
061019 G96  0.5-  0.7-    061020 291  0.2+  0.2+    061020 G96  0.2+  0.8-
061019 G96  0.1+  0.0     061020 291  0.6+  0.6+    061020 673  0.6+  0.3+
061019 G96  0.5-  0.5+    061020 291  0.1-  0.4+    061020 673  0.0   0.6-
061019 G96  0.5+  0.2+    061020 G96  0.1+  0.5-

Ephemeris:
2006 UY16                a,e,i = 2.11, 0.51, 3                   q = 1.0231
Date    TT    R. A. (2000) Decl.     Delta      r     Elong.  Phase     V
2006 10 12    21 18.52   -20 50.5    0.0791   1.037   117.1    59.0    21.3
2006 10 14    21 44.62   -17 08.2    0.0771   1.041   122.2    54.2    21.1
2006 10 16    22 10.90   -13 03.2    0.0764   1.045   127.6    49.1    20.9
2006 10 18    22 36.67   -08 46.1    0.0771   1.051   133.1    43.8    20.8
2006 10 20    23 01.34   -04 29.7    0.0791   1.056   138.4    38.8    20.8
2006 10 22    23 24.44   -00 25.4    0.0825   1.063   143.2    34.1    20.7
2006 10 24    23 45.70   +03 18.2    0.0872   1.069   147.4    30.1    20.7
2006 10 26    00 05.01   +06 36.6    0.0929   1.076   151.0    26.6    20.8
2006 10 28    00 22.38   +09 28.7    0.0997   1.084   153.8    23.9    20.9
2006 10 30    00 37.92   +11 55.9    0.107    1.092   156.0    21.7    21.0
2006 11 01    00 51.78   +14 00.5    0.116    1.101   157.7    20.0    21.1
2006 11 03    01 04.14   +15 45.5    0.125    1.109   158.9    18.8    21.3
2006 11 05    01 15.17   +17 13.8    0.134    1.119   159.7    17.9    21.4
2006 11 07    01 25.03   +18 28.0    0.145    1.128   160.2    17.3    21.6
2006 11 09    01 33.87   +19 30.4    0.155    1.138   160.4    17.0    21.7
2006 11 11    01 41.83   +20 22.9    0.167    1.149   160.4    16.8    21.9

Timothy B. Spahr             (C) Copyright 2006 MPC           M.P.E.C. 2006-U19

Read MPEC 2006-U18 Read MPEC 2006-U20


MPEC number:

Enter an MPEC number in one of the following forms:

  • 1997-B01 (the full form)
  • J97B01 (the packed version of the full form)
  • B01 (the abbreviated form)

Valid HTML 4.01!